STARLINK-3118 (49140 NORAD) Tracking and Keplerian Element Data

This shows tracking and keplerian element data for the satellite.

Feedback or suggestion? Click here.




ElementValue
Catalog49140
NameSTARLINK-3118
Epoch Orbit498
Epoch Day288.25002315
Epoch Year2021
RAAN39.3818
Inclination70
Eccentricity0.0003335
Argument of Perigee286.2295
Mean Anonmoly235.9664
Mean Motion15.69749762
Decay Rate-5.554E-05
L11 49140U 21082L 21288.25002315 -.00005554 00000-0 -44781-4 0 9999
L22 49140 70.0000 39.3818 0003335 286.2295 235.9664 15.69749762 4989

Live tracking and technical data element details for STARLINK-3118 (NORAD 49140). STARLINK-3118 can be tracked NOW for your location showing map with azimuth and elevation plus other details from your city location.

Track the satellite on the map from your city or location and see movement details for azimuth, elevation, latitude, longitude, range, height, and movement on the map or in text.







IsCatalogInMostPopularTable: catalog: 49140, numindb: 8
Update: records affected: 1



GetName: 49140 STARLINK-3118

Hit Count: updated at: Sun, 17 Oct 2021 09:57:03 GMT